Location: Unspecified
(49.8670°N, 0.0000°E)
Time: 18:59:36
(UTC+00:00)

S-56A Canister/Altair - Pass Details

Date: 25 June 2019
Orbit: 633 x 2499 km, 38.9° (Epoch: 19 August)

Event Time Altitude Azimuth Distance (km) Brightness Sun altitude
Rises 15:58:53 0° 242° (WSW) 5,289 12.6 37.4°
Reaches altitude 10° 16:03:07 10° 235° (SW) 3,985 12.2 36.7°
Maximum altitude 16:11:45 35° 175° (S) 1,937 9.9 35.4°
Drops below altitude 10° 16:17:47 10° 112° (ESE) 2,765 10.0 34.4°
Sets 16:20:12 0° 103° (ESE) 3,516 10.4 34.0°
